Regional Weather Roundup
Issued by NWS

Home | Current Version | Previous Version | Graphics & Text | Print | Product List | Glossary On
Versions: 1 2 3 4 5 6 7 8 9 10 11 12 13 14 15 16 17 18 19 20 21 22 23 24 25 26 27 28 29 30 31 32 33 34 35 36 37 38 39 40 41 42 43 44 45 46 47 48 49 50
000
ASUS45 KTFX 220419
RWRMT
MONTANA HOURLY WEATHER ROUNDUP
NATIONAL WEATHER SERVICE GREAT FALLS MT
1019 PM MDT TUE OCT 21 2014

NOTE: "FAIR" INDICATES FEW OR NO CLOUDS BELOW 12000 FEET WITH NO
SIGNIFICANT WEATHER AND/OR OBSTRUCTIONS TO VISIBILITY.

* THESE STATIONS ARE NOT UNDER NWS QUALITY CONTROL. THEY DO NOT
   REPORT WEATHER SUCH AS PRECIPITATION OR FOG.

MTZ001>007-043-220500-
WEST OF THE DIVIDE
CITY           SKY/WX    TMP DP  RH WIND       PRES   REMARKS
KALISPELL      CLOUDY    46  39  77 SW6       29.97R
MISSOULA       CLOUDY    45  43  93 CALM      30.04R
BUTTE          CLOUDY    37  34  89 CALM      30.04R
MULLAN PASS    FOG       36  36 100 VRB5      30.01R WCI  32
* ESSEX        N/A       42  41  96 S2         N/A
* LINCOLN      N/A       41  37  86 S3G8       N/A
* POLSON       N/A       40  39  96 SE2        N/A
* RONAN APT    PTCLDY    46  43  89 N/A        N/A
* SEELEY LAKE  N/A       40  39  96 N1         N/A
* THOMP F APT  PTCLDY    40  27  60 NW4G12     N/A
$$

MTZ008-052>055-220500-
SOUTHWEST MONTANA
CITY           SKY/WX    TMP DP  RH WIND       PRES   REMARKS
BOZEMAN        MOCLDY    39  36  89 E7        30.02R WCI  34
DILLON         LGT SNOW  36  30  79 SW9       30.04R WCI  29
W YELLOWSTONE  CLOUDY    32  32 100 W5        30.09R WCI  27
* THREE FORKS  MOCLDY    39  39 100 N/A        N/A
* BOULDER HILL N/A       39  32  76 S6         N/A   WCI  35
* MONIDA PASS  N/A       29  28  96 SW1        N/A
* RAYNOLDS PAS N/A       29   8  41 SE6        N/A   WCI  23
* WHITEHALL    N/A       41  34  76 NW9G15     N/A
* WISE RIVER   N/A       39  30  70 W9G16      N/A   WCI  33
$$

MTZ009>010-012-014-046-048-049-054-220500-
EAST SLOPES AND CENTRAL MONTANA
CITY           SKY/WX    TMP DP  RH WIND       PRES   REMARKS
CUT BANK       CLOUDY    45  36  71 W20       29.82R
GREAT FALLS    MOCLDY    45  37  74 SW14      29.87R
HELENA         CLOUDY    48  34  59 SW9G21    29.97R
MALMSTROM AFB  MOCLDY    45  39  80 SW16      29.89R
* CONRAD       CLOUDY    45  43  93 N/A        N/A
* DEARBORN     N/A       48  36  63 SW4G11     N/A
* EAST GLACIER N/A       43  30  60 NW20       N/A
* MONARCH      N/A       39  30  70 SW12G19    N/A   WCI  32
* PENDROY      N/A       44  32  63 NW16       N/A
* ROGERS PASS  N/A       38  34  86 SE15G25    N/A   WCI  29
* SAINT MARY   N/A       45  33  63 S9G24      N/A
* SWEET GRASS  N/A       47  40  77 SW20G27    N/A
* WHITE SULPH  N/A       41  34  76 W6G15      N/A
$$

MTZ011-013-016-021-035-040-045-047-050-051-220500-
NORTH CENTRAL MONTANA
CITY           SKY/WX    TMP DP  RH WIND       PRES   REMARKS
HAVRE          LGT RAIN  48  46  93 SW23G31   29.79R
LEWISTOWN      LGT RAIN  45  39  80 NW9       29.89S
* CHINOOK      PTCLDY    52  45  77 SW15G22   29.77S
* FORT BENTON  CLOUDY    48  43  83 S10       29.86S
* CHESTER      N/A       46  44  93 S2         N/A
* DENTON       N/A       45  41  86 W9         N/A
* GEYSER       N/A       44  36  74 SW17G23    N/A
* JUDITH GAP   N/A       43  39  86 W1         N/A
* LOMA         N/A       48  43  83 S6G13      N/A
$$

MTZ017>020-022>027-061-062-220500-
NORTHEAST MONTANA
CITY           SKY/WX    TMP DP  RH WIND       PRES   REMARKS
GLASGOW        CLOUDY    54  45  72 W14       29.69R
GLENDIVE       CLOUDY    59  48  67 W16       29.70R
JORDAN         MOCLDY    54  46  74 W15       29.76R
SIDNEY         PTCLDY    55  45  69 W7        29.65R
WOLF POINT     CLOUDY    57  46  67 W16       29.65R
* BEAVER HILL  N/A       63  40  43 SW9G16     N/A
* CIRCLE       N/A       58  47  67 W18        N/A
* LINDSAY DVD  N/A       59  46  62 W9         N/A
* NAVAJO       N/A       58  43  58 W14G19     N/A
$$

MTZ028>042-056>058-220500-
SOUTHCENTRAL AND SOUTHEAST MONTANA
CITY           SKY/WX    TMP DP  RH WIND       PRES   REMARKS
BAKER          MOCLDY    57  41  55 W9        29.71R
BILLINGS       MOCLDY    50  32  50 W17G33    29.90R
LIVINGSTON     CLOUDY    45  32  60 W16       29.95S
MILES CITY     LGT RAIN  59  45  60 W21G28    29.78R
* LAUREL APT   PTCLDY    50  30  46 W18G33     N/A
* ROUNDUP APT  PTCLDY    48  36  63 W13G23     N/A
* ALZADA       N/A       61  39  44 SW5        N/A
* HYSHAM       N/A       55  32  42 W11G17     N/A
* LAME DEER    N/A       57  20  24 W15G29     N/A
* REED POINT   N/A       48  33  56 W17G25     N/A
* ROSCOE HILL  N/A       44  19  37 VRB8G14    N/A
$$

REGIONAL REPORTS...DAKOTAS
CITY           SKY/WX    TMP DP  RH WIND       PRES   REMARKS
WILLISTON      PTCLDY    46  39  77 CALM      29.60R
DICKINSON      PTCLDY    57  43  60 W5        29.63R
BEACH          N/A       61  39  44 W12       29.69S
CROSBY         CLEAR     45  41  86 SW6       29.59S
TIOGA          CLEAR     41  41 100 E5        29.62S
BISMARCK       CLEAR     66  37  34 SE18      29.67F
GRAND FORKS    PTCLDY    54  41  62 S21G32    29.86S
FARGO          CLEAR     57  41  55 SE25G40   29.91S
BUFFALO SD     PTCLDY    57  39  51 SW10      29.62R
RAPID CITY     MOCLDY    61  43  52 S7        29.77R
$$

REGIONAL REPORTS...WYOMING/IDAHO/WASHINGTON
CITY           SKY/WX    TMP DP  RH WIND       PRES   REMARKS
GILLETTE       PTCLDY    63  36  37 W14G23    29.80R
SHERIDAN       CLOUDY    57  25  29 NW21G26   29.82R
CODY           PTCLDY   N/A N/A N/A W10G21    29.94R
YELLOWSTONE LA MOCLDY    32  28  85 CALM      30.11R
SALMON         PTCLDY   N/A N/A N/A N/A        N/A
MULLAN PASS    FOG       36  36 100 VRB5      30.01S WCI  32
SAND POINT     CLOUDY    46  46 100 CALM      29.97R
SPOKANE        FAIR      48  41  77 S8        29.97S
$$

REGIONAL REPORTS...ALBERTA
CITY           SKY/WX    TMP DP  RH WIND       PRES   REMARKS
CALGARY        FAIR      46  27  48 VRB3      29.75S
LETHBRIDGE     MOCLDY    50  34  54 W18G29    29.78R
MEDICINE HAT   CLOUDY    50  46  86 SW8       29.71R
EDMONTON       MOCLDY    34  32  92 S6        29.69F WCI  29
WATERTON GATE  N/A       46  30  54 SW18G26    N/A
CARDSTON       N/A       48  32  54 W14G23     N/A
MILK RIVER     N/A       48  37  66 W15G21     N/A
$$

REGIONAL REPORTS...SASKATCHEWAN
CITY           SKY/WX    TMP DP  RH WIND       PRES   REMARKS
SWIFT CURRENT  MOCLDY    50  41  71 W13G20    29.66R
REGINA         MOCLDY    52  43  72 SE9       29.56F
VAL MARIE      N/A       50  43  77 W15        N/A
ASSINIBOIA     N/A       52  41  66 W9         N/A
CORONACH       N/A       55  41  59 W10        N/A

$$




USA.gov is the U.S. government's official web portal to all federal, state and local government web resources and services.